Location: Unspecified
(0.0000°N, 0.0000°E)
Time: 06:42:18
(UTC+00:00)

deb Explorer IX - All Passes

Search period start: 10 February 2016 00:00
Search period end: 20 February 2016 00:00
Orbit: 544 x 1141 km, 38.8° (Epoch: 09 February)

Date Brightness Start Highest point End Pass type
(mag) Time Alt. Az. Time Alt. Az. Time Alt. Az.
10 Feb - 01:29:34 10° SSW 01:33:24 24° SE 01:36:53 10° E night (unlit)
10 Feb - 03:16:45 10° WSW 03:20:34 29° NW 03:24:09 10° NNE night (unlit)
10 Feb - 12:25:35 10° N 12:29:33 17° NE 12:33:48 10° ENE daylight
10 Feb - 14:10:25 10° NW 14:17:16 85° NE 14:24:48 10° SE daylight
10 Feb - 16:00:00 10° W 16:05:24 22° SW 16:10:58 10° S daylight
11 Feb - 01:12:46 10° SSW 01:16:58 28° SE 01:20:44 10° E night (unlit)
11 Feb - 03:00:25 10° W 03:04:07 26° NW 03:07:33 10° NNE night (unlit)
11 Feb - 12:08:46 10° N 12:12:57 18° NE 12:17:30 10° E daylight
11 Feb - 13:53:53 10° NW 14:00:36 88° SW 14:08:07 10° SE daylight
11 Feb - 15:43:47 10° W 15:48:48 20° SW 15:54:00 10° S daylight
12 Feb - 00:55:58 10° SSW 01:00:32 33° SE 01:04:32 10° ENE night (unlit)
12 Feb - 02:44:05 10° W 02:47:39 22° NW 02:50:56 10° N night (unlit)
12 Feb - 11:52:01 10° N 11:56:22 20° NE 12:01:08 10° E daylight
12 Feb - 13:37:22 10° NW 13:43:57 80° SW 13:51:23 10° SE daylight
12 Feb - 15:27:39 10° WSW 15:32:13 18° SW 15:36:58 10° S daylight
13 Feb - 00:39:12 10° SSW 00:44:05 40° SE 00:48:18 10° ENE night (unlit)
13 Feb - 02:27:48 10° W 02:31:10 20° NW 02:34:18 10° N night (unlit)
13 Feb - 11:35:18 10° N 11:39:47 21° NE 11:44:44 10° E daylight
13 Feb - 13:20:55 10° NW 13:27:19 72° SW 13:34:38 10° SE daylight
13 Feb - 15:11:37 10° WSW 15:15:39 16° SW 15:19:50 10° S daylight
14 Feb - 00:22:27 10° SW 00:27:37 47° SE 00:32:02 10° ENE night (unlit)
14 Feb - 02:11:32 10° W 02:14:41 18° NW 02:17:38 10° N night (unlit)
14 Feb - 11:18:37 10° N 11:23:11 23° NE 11:28:18 10° E daylight
14 Feb - 13:04:28 10° WNW 13:10:41 64° SW 13:17:52 10° SE daylight
14 Feb - 14:55:44 10° WSW 14:59:05 14° SW 15:02:35 10° S daylight
15 Feb - 00:05:42 10° SW 00:11:08 56° SE 00:15:44 10° ENE night (unlit)
15 Feb - 01:55:18 10° W 01:58:12 16° NW 02:00:54 10° N night (unlit)
15 Feb - 11:01:58 10° NNW 11:06:36 25° NE 11:11:50 10° E daylight
15 Feb - 12:48:04 10° WNW 12:54:05 57° SW 13:01:04 10° SE daylight
15 Feb - 14:40:04 10° SW 14:42:34 12° SSW 14:45:08 10° SSW daylight
15 Feb - 22:05:15 10° SSE 22:06:32 11° SSE 22:07:46 10° SE night (unlit)
15 Feb - 23:48:58 10° SW 23:54:39 65° SE 23:59:24 10° ENE night (unlit)
16 Feb - 01:39:07 10° WNW 01:41:42 14° NW 01:44:08 10° N night (unlit)
16 Feb - 10:45:21 10° NNW 10:50:01 28° NE 10:55:21 10° E daylight
16 Feb - 12:31:41 10° WNW 12:37:29 50° SW 12:44:15 10° SE daylight
16 Feb - 14:25:08 10° SW 14:26:02 10° SSW 14:26:57 10° SSW daylight
16 Feb - 21:47:24 10° S 21:50:04 13° SSE 21:52:34 10° ESE visible
16 Feb - 23:32:14 10° SW 23:38:08 76° SE 23:43:02 10° NE night (unlit)
17 Feb - 01:23:01 10° WNW 01:25:12 13° NW 01:27:17 10° NNW night (unlit)
17 Feb - 10:28:46 10° NNW 10:33:26 30° NE 10:38:50 10° ESE daylight
17 Feb - 12:15:20 10° WNW 12:20:55 44° SW 12:27:24 10° SSE daylight
17 Feb - 21:30:02 10° S 21:33:34 15° SE 21:36:51 10° ESE visible
17 Feb - 23:15:32 10° SW 23:21:36 86° SE 23:26:39 10° NE night (unlit)
18 Feb - 01:07:02 10° WNW 01:08:42 11° NW 01:10:18 10° NNW night (unlit)
18 Feb - 10:12:11 10° NNW 10:16:52 33° NE 10:22:18 10° ESE daylight
18 Feb - 11:59:02 10° WNW 12:04:21 39° SW 12:10:33 10° SSE daylight
18 Feb - 21:12:50 10° S 21:17:05 18° SE 21:20:57 10° ESE visible
18 Feb - 22:58:49 10° SW 23:05:03 83° NW 23:10:14 10° NE night (unlit)
19 Feb - 00:51:24 10° NW 00:52:11 10° NW 00:52:58 10° NNW night (unlit)
19 Feb - 09:55:39 10° NNW 10:00:18 37° NE 10:05:46 10° ESE daylight
19 Feb - 11:42:46 10° WNW 11:47:48 34° SW 11:53:39 10° SSE daylight
19 Feb - 20:55:44 10° S 21:00:33 20° SE 21:04:56 10° E visible
19 Feb - 22:42:07 10° SW 22:48:29 74° NW 22:53:48 10° NE night (unlit)
